(130657) = 2000 SH97 = 2002 CZ141

Discovered at Socorro on 2000-09-23 by LINEAR.

Orbit

Orbit type: Main Belt

Note: WebGL enabled browser required.

epoch2024-03-31.0
epoch JD2460400.5
perihelion date2023-08-11.37536
perihelion JD2460167.87536
argument of perihelion (°)239.25916
ascending node (°)248.82150
inclination (°)4.08997
eccentricity0.0563686
perihelion distance (AU)2.2221532
Tisserand w.r.t. Jupiter3.5
ΔV w.r.t. Earth (km/sec)9.3
semimajor axis (AU)2.3548955
mean anomaly (°)63.44569
mean daily motion (°/day)0.27273850
aphelion distance (AU)2.488
period (years)3.61
P-vector [x]-0.61472914
P-vector [y]0.74584851
P-vector [z]0.25655035
Q-vector [x]-0.78592943
Q-vector [y]-0.55180527
Q-vector [z]-0.27897289
absolute magnitude16.2
phase slope0.15
uncertainty0
referenceMPEC 2024-F50
observations used844
oppositions19
arc length (days)11116
first opposition used1993
last opposition used2024
residual rms (arc-secs)0.70
perturbers coarse indicatorM-v
perturbers precise indicator003Ek
first observation date used1993-10-12.0
last observation date used2024-03-19.0
computer nameMPCLINUX
JD of orbit computation2456909.197802
perihelion JD uncertainty (days)1.6587E-04
argument of perihelion uncertainty (°)8.8352E-05
ascending node uncertainty (°)7.6662E-05
inclination uncertainty (°)3.9996E-06
eccentricity uncertainty 5.1352E-08
perihelion distance uncertainty (AU)1.1717E-07
Minimum Orbit Intersection Distances (in AU)
for orbit epoch: 2460400.5, reference: E2024-GD4
Mercury1.87816
Venus1.50948
Earth1.24105
Mars0.5971
Jupiter2.5398
Saturn6.78534
Uranus16.197
Neptune27.4495

Observations

859 total observations over interval: 1993 10 12.27119 – 2024 03 19.530468
These data are available for download (format description).

Date (UT) J2000 RA J2000 Dec Magn Location Ref
1993 10 12.27119 02 15 26.23 +18 12 53.4 18.8 V 691 – Steward Observatory, Kitt Peak-Spacewatch MPS 79764
1993 10 12.29022 02 15 25.21 +18 12 47.7 19.2 V 691 – Steward Observatory, Kitt Peak-Spacewatch MPS 79764
1993 10 12.30934 02 15 24.21 +18 12 41.7 20.0 V 691 – Steward Observatory, Kitt Peak-Spacewatch MPS 79764
1993 10 20.28336 02 08 10.55 +17 27 38.6   691 – Steward Observatory, Kitt Peak-Spacewatch MPS 175894
1993 10 20.31571 02 08 08.62 +17 27 26.4 19.0 V 691 – Steward Observatory, Kitt Peak-Spacewatch MPS 175894
1993 10 20.34880 02 08 06.65 +17 27 14.5   691 – Steward Observatory, Kitt Peak-Spacewatch MPS 175894
1999 05 19.29550 15 59 56.60 -21 40 20.4 19.2   704 – Lincoln Laboratory ETS, New Mexico MPS 51979
1999 05 19.30954 15 59 55.63 -21 40 15.7 19.7   704 – Lincoln Laboratory ETS, New Mexico MPS 51979
1999 05 19.32365 15 59 54.70 -21 40 10.4 19.4   704 – Lincoln Laboratory ETS, New Mexico MPS 51979
1999 05 19.35180 15 59 52.56 -21 40 06.0 20.2   704 – Lincoln Laboratory ETS, New Mexico MPS 51979
2000 09 23.27681 00 07 57.17 +07 46 47.2 19.1   704 – Lincoln Laboratory ETS, New Mexico MPS 19923
2000 09 23.29153 00 07 56.32 +07 46 41.7 19.0   704 – Lincoln Laboratory ETS, New Mexico MPS 19923
2000 09 23.30627 00 07 55.48 +07 46 35.3 18.8   704 – Lincoln Laboratory ETS, New Mexico MPS 19923
2000 09 23.32099 00 07 54.65 +07 46 30.5 19.4   704 – Lincoln Laboratory ETS, New Mexico MPS 19923
2000 09 25.42124 00 05 59.35 +07 32 38.7 20.0   608 – Haleakala-AMOS MPS 19923
2000 09 25.43218 00 05 58.73 +07 32 35.1 19.9   608 – Haleakala-AMOS MPS 19923
2000 09 25.44298 00 05 58.12 +07 32 30.3 19.6   608 – Haleakala-AMOS MPS 19923
2000 09 27.25369 00 04 18.60 +07 20 14.1 18.6   704 – Lincoln Laboratory ETS, New Mexico MPS 19923
2000 09 27.26879 00 04 17.75 +07 20 07.8 19.2   704 – Lincoln Laboratory ETS, New Mexico MPS 19923
2000 09 27.28386 00 04 16.91 +07 20 02.1 19.5   704 – Lincoln Laboratory ETS, New Mexico MPS 19923
2000 10 01.30708 00 00 38.30 +06 52 00.8 17.9 R 699 – Lowell Observatory-LONEOS MPS 21211
2000 10 01.32629 00 00 37.19 +06 51 51.5   699 – Lowell Observatory-LONEOS MPS 21211
2000 10 01.32704 00 00 37.06 +06 51 51.5   699 – Lowell Observatory-LONEOS MPS 21211
2000 10 01.34629 00 00 36.02 +06 51 42.9   699 – Lowell Observatory-LONEOS MPS 21211
2000 10 03.26079 23 58 54.59 +06 38 07.8 19.0   704 – Lincoln Laboratory ETS, New Mexico MPS 19923
2000 10 03.27631 23 58 53.72 +06 38 01.0 19.8   704 – Lincoln Laboratory ETS, New Mexico MPS 19923
2000 10 03.29215 23 58 52.81 +06 37 54.7 19.5   704 – Lincoln Laboratory ETS, New Mexico MPS 19923
2000 10 03.31825 23 58 51.44 +06 37 43.9 20.1   704 – Lincoln Laboratory ETS, New Mexico MPS 19923
2000 10 03.33581 23 58 50.47 +06 37 36.6 19.3   704 – Lincoln Laboratory ETS, New Mexico MPS 19923
2001 12 22.61490 10 29 33.77 +04 06 22.0 20.3   608 – Haleakala-AMOS MPS 51979
2001 12 22.62537 10 29 34.03 +04 06 18.6 21.0   608 – Haleakala-AMOS MPS 51979
2001 12 22.63567 10 29 34.28 +04 06 15.2 21.2   608 – Haleakala-AMOS MPS 51979
2002 01 13.38853 10 32 05.76 +02 43 17.3 19.0   704 – Lincoln Laboratory ETS, New Mexico MPS 51979
2002 01 13.40643 10 32 05.47 +02 43 16.2 19.0   704 – Lincoln Laboratory ETS, New Mexico MPS 51979
2002 01 13.42169 10 32 05.22 +02 43 14.8 18.8   704 – Lincoln Laboratory ETS, New Mexico MPS 51979
2002 01 13.43849 10 32 04.93 +02 43 13.2 19.0   704 – Lincoln Laboratory ETS, New Mexico MPS 51979
2002 01 22.32364 10 28 54.46 +02 35 34.3 19.6   704 – Lincoln Laboratory ETS, New Mexico MPS 51979
2002 01 22.33856 10 28 53.96 +02 35 35.0 19.3   704 – Lincoln Laboratory ETS, New Mexico MPS 51979
2002 01 22.35353 10 28 53.51 +02 35 34.6 18.6   704 – Lincoln Laboratory ETS, New Mexico MPS 51979
2002 01 22.36850 10 28 53.01 +02 35 34.9 19.0   704 – Lincoln Laboratory ETS, New Mexico MPS 51979
2002 02 08.39544 10 16 47.08 +03 06 58.1 19.3   704 – Lincoln Laboratory ETS, New Mexico MPS 50322
2002 02 08.42472 10 16 45.43 +03 07 02.8 18.8   704 – Lincoln Laboratory ETS, New Mexico MPS 50322
2002 02 08.43958 10 16 44.58 +03 07 06.5 18.9   704 – Lincoln Laboratory ETS, New Mexico MPS 50322
2002 02 11.38830 10 14 03.57 +03 18 09.9 18.7   704 – Lincoln Laboratory ETS, New Mexico MPS 50322
2002 02 11.40280 10 14 02.75 +03 18 13.0 19.6   704 – Lincoln Laboratory ETS, New Mexico MPS 50322
2002 02 11.41757 10 14 01.84 +03 18 16.8 19.5   704 – Lincoln Laboratory ETS, New Mexico MPS 50322
2002 02 11.43198 10 14 00.96 +03 18 20.5 19.4   704 – Lincoln Laboratory ETS, New Mexico MPS 50322
2002 02 11.44696 10 14 00.10 +03 18 23.9 19.2   704 – Lincoln Laboratory ETS, New Mexico MPS 50322
2002 03 04.29447 09 54 23.17 +05 03 41.4 18.5 R 703 – Catalina Sky Survey MPS 51979
2002 03 04.30286 09 54 22.95 +05 03 43.5 19.0 R 703 – Catalina Sky Survey MPS 51979
2002 03 04.31125 09 54 22.31 +05 03 46.5 18.5 R 703 – Catalina Sky Survey MPS 51979
2002 03 04.31964 09 54 21.82 +05 03 49.4 18.7 R 703 – Catalina Sky Survey MPS 51979
2002 03 05.179290 09 53 38.578 +05 08 33.93 18.81 V 645 – Apache Point-Sloan Digital Sky Survey MPS 79764
2002 03 05.182762 09 53 38.394 +05 08 35.07 19.63   645 – Apache Point-Sloan Digital Sky Survey MPS 79764
2002 03 06.20569 09 52 47.72 +05 14 12.8 18.5   644 – Palomar Mountain/NEAT MPS 51979
2002 03 06.21606 09 52 47.18 +05 14 16.2 18.6   644 – Palomar Mountain/NEAT MPS 51979
2002 03 06.22662 09 52 46.64 +05 14 19.6 18.6   644 – Palomar Mountain/NEAT MPS 51979
2002 03 10.41526 09 49 32.43 +05 37 07.2 19.4   608 – Haleakala-AMOS MPS 51979
2002 03 10.42615 09 49 31.95 +05 37 10.9 19.7   608 – Haleakala-AMOS MPS 51979
2002 03 10.43670 09 49 31.47 +05 37 14.4 20.0   608 – Haleakala-AMOS MPS 51979
2002 03 16.25016 09 45 45.13 +06 07 06.7 19.0   704 – Lincoln Laboratory ETS, New Mexico MPS 51979
2002 03 16.26328 09 45 44.60 +06 07 10.4 19.4   704 – Lincoln Laboratory ETS, New Mexico MPS 51979
2002 03 16.27638 09 45 44.17 +06 07 15.2 19.3   704 – Lincoln Laboratory ETS, New Mexico MPS 51979
2002 03 16.30341 09 45 43.24 +06 07 23.2 19.1   704 – Lincoln Laboratory ETS, New Mexico MPS 51979
2004 11 07.25441 03 46 04.93 +21 52 12.1 19.3   704 – Lincoln Laboratory ETS, New Mexico MPS 119219
2004 11 07.27839 03 46 03.43 +21 52 04.7 19.1   704 – Lincoln Laboratory ETS, New Mexico MPS 119219
2004 11 07.29040 03 46 02.70 +21 52 00.2 18.6   704 – Lincoln Laboratory ETS, New Mexico MPS 119219
2004 11 07.30255 03 46 02.00 +21 51 58.9 19.2   704 – Lincoln Laboratory ETS, New Mexico MPS 119219
2004 11 09.42327 03 43 56.60 +21 41 30.7 18.3 R 703 – Catalina Sky Survey MPS 119219
2004 11 09.43164 03 43 56.08 +21 41 27.9 17.9 R 703 – Catalina Sky Survey MPS 119219
2004 11 09.44000 03 43 55.54 +21 41 25.1 17.9 R 703 – Catalina Sky Survey MPS 119219
2004 11 09.44838 03 43 55.08 +21 41 23.0 18.4 R 703 – Catalina Sky Survey MPS 119219
2004 11 18.24497 03 34 49.21 +20 53 50.7 18.6   704 – Lincoln Laboratory ETS, New Mexico MPS 119790
2004 11 18.25718 03 34 48.32 +20 53 46.5 18.4   704 – Lincoln Laboratory ETS, New Mexico MPS 119790
2004 11 18.26939 03 34 47.49 +20 53 43.3 18.6   704 – Lincoln Laboratory ETS, New Mexico MPS 119790
2004 11 18.28164 03 34 46.69 +20 53 36.8 18.4   704 – Lincoln Laboratory ETS, New Mexico MPS 119790
2004 11 18.29394 03 34 45.86 +20 53 33.3 18.5   704 – Lincoln Laboratory ETS, New Mexico MPS 119790
2004 11 30.24558 03 22 42.35 +19 44 06.4 19.1 R 699 – Lowell Observatory-LONEOS MPS 127101
2004 11 30.27488 03 22 40.54 +19 43 57.4   699 – Lowell Observatory-LONEOS MPS 127101
2004 11 30.30417 03 22 38.91 +19 43 46.6   699 – Lowell Observatory-LONEOS MPS 127102
2004 11 30.33344 03 22 37.17 +19 43 36.1   699 – Lowell Observatory-LONEOS MPS 127102
2004 12 04.19577 03 19 10.15 +19 21 45.8 19.1   704 – Lincoln Laboratory ETS, New Mexico MPS 121115
2004 12 04.23605 03 19 07.99 +19 21 32.6 19.1   704 – Lincoln Laboratory ETS, New Mexico MPS 121115
2004 12 04.24861 03 19 07.27 +19 21 28.4 19.2   704 – Lincoln Laboratory ETS, New Mexico MPS 121115
2004 12 09.28527 03 15 07.73 +18 54 32.7 17.3 R 703 – Catalina Sky Survey MPS 121115
2004 12 09.29329 03 15 07.54 +18 54 31.1 17.7 R 703 – Catalina Sky Survey MPS 121115
2004 12 09.30131 03 15 07.12 +18 54 27.7 18.1 R 703 – Catalina Sky Survey MPS 121115
